Weather in Aspen

United States     39°11′25″N   106°49′02″W
temp.,
°C
wind,
m/s
gust,
m/s
humid.,
%
clouds,
%
prec.,
mm/h
press.,
hPa
HPBL,
m
25 may, wed
wed2500:00−6se229340 1.1 102223
03:00−8se32936 0.0 102534
06:00−8se32896 0.0 102634
09:00+2nw24575 0.0 1019898
12:00+6nw47491 0.0 10161506
15:00+9nw474814 0.0 10141370
18:00+9wnw375344 0.0 10141484
21:000sse21782 0.0 102011
26 may, thu
thu2600:00−1se33770 0.0 102332
03:00−1se32760 0.0 102333
06:00−2se32751 0.0 102432
09:00+10wsw024813 0.0 1020686
12:00+13wnw243014 0.0 10171727
15:00+16wnw252814 0.0 10152051
18:00+13nw243613 0.0 10151471
21:00+5se3260100 0.0 102031
27 may, fri
fri2700:00+5se3358100 0.0 102142
03:00+3se33595 0.0 102141
06:00+3se34580 0.0 102046
09:00+14ssw2637100 0.0 10151495
12:00+17sw692764 0.0 10123761
15:00+18wsw811243 0.0 10103589
18:00+15wsw6112952 0.0 10102671
21:00+6s334837 0.0 101538
28 may, sat
sat2800:00+5se334970 0.0 101545
03:00+4sse335342 0.0 101441
06:00+3sse445466 0.0 101360
09:00+12sw5142821 0.0 10082211
12:00+15wsw714235 0.0 10052594
15:00+16wsw9151974 0.0 10032915
18:00+15wsw8152287 0.0 10012956
21:00+10ssw51332100 0.0 1002942
29 may, sun
sun2900:00+8wsw4134686 0.0 10021423
03:00+3s247734 0.1 1003141
06:00+2s348954 0.3 1004133
09:00+8wsw4124844 0.0 9991726
12:00+11sw7144127 0.1 9972193
15:00+13wsw7163558 0.1 9952611
18:00+9wsw2135097 2.1 9952372
21:00+2wsw237615 0.1 1000108